This demonstration page uses our WeatherBlox Daily Observations layout. Learn more.

Left ArrowRight Arrow

Hourly Observations for July 1, 2017

Temp ( °F °C ) Dew Point ( °F °C ) Humidity (%) Winds ( mph kmh ) Pressure ( in mb ) Visibility ( mi km ) Precip ( " mm )
12:53 am 00:53 Clear 58 14.4 47 8.3 67 67 Calm 29.91 1013 10 16 0.00 0.00
1:53 am 01:53 Clear 55 12.8 47 8.3 74 74 SW 6 9 29.90 1012 10 16 0.00 0.00
2:53 am 02:53 Clear 51 10.6 47 8.3 86 86 SSW 3 6 29.90 1012 10 16 0.00 0.00
3:53 am 03:53 Clear 53 11.7 46 7.8 77 77 Calm 29.90 1012 10 16 0.00 0.00
4:53 am 04:53 Clear 50 10 45 7.2 83 83 Calm 29.91 1013 10 16 0.00 0.00
5:53 am 05:53 Sunny 49 9.4 45 7.2 86 86 W 5 7 29.92 1013 10 16 0.00 0.00
6:53 am 06:53 Sunny 56 13.3 50 10 81 81 S 6 9 29.92 1013 10 16 0.00 0.00
7:53 am 07:53 Sunny 62 16.7 49 9.4 62 62 Calm 29.93 1013 10 16 0.00 0.00
8:53 am 08:53 Sunny 70 21.1 47 8.3 44 44 VRB 3 6 29.92 1013 10 16 0.00 0.00
9:53 am 09:53 Sunny 75 23.9 44 6.7 33 33 N 3 6 29.92 1013 10 16 0.00 0.00
10:53 am 10:53 Sunny 81 27.2 45 7.2 28 28 VRB 6 9 29.90 1013 10 16 0.00 0.00
11:53 am 11:53 Sunny 83 28.3 44 6.7 25 25 Calm 29.88 1012 10 16 0.00 0.00
12:53 pm 12:53 Sunny 87 30.6 42 5.6 21 21 SW 6 9 29.87 1012 10 16 0.00 0.00
1:53 pm 13:53 Sunny 89 31.7 43 6.1 20 20 W 5 7 29.85 1011 10 16 0.00 0.00
2:53 pm 14:53 Sunny 90 32.2 44 6.7 20 20 SE 8 13 29.84 1011 10 16 0.00 0.00
3:53 pm 15:53 Sunny 91 32.8 43 6.1 19 19 VRB 3 6 29.83 1010 10 16 0.00 0.00
4:53 pm 16:53 Sunny 91 32.8 44 6.7 20 20 VRB 5 7 29.82 1010 10 16 0.00 0.00
5:53 pm 17:53 Sunny 90 32.2 44 6.7 20 20 SSW 3 6 29.81 1010 10 16 0.00 0.00
6:53 pm 18:53 Partly Cloudy 90 32.2 45 7.2 21 21 E 10 17 29.80 1009 10 16 0.00 0.00
7:53 pm 19:53 Sunny 86 30 46 7.8 25 25 ESE 12 19 29.81 1009 10 16 0.00 0.00
8:53 pm 20:53 Sunny 82 27.8 47 8.3 29 29 E 13 20 29.80 1009 10 16 0.00 0.00
9:53 pm 21:53 Clear 77 25 47 8.3 35 35 ESE 14 22 29.81 1010 10 16 0.00 0.00
10:53 pm 22:53 Clear 76 24.4 48 8.9 37 37 E 17 28 29.80 1009 10 16 0.00 0.00
11:53 pm 23:53 Clear 74 23.3 48 8.9 40 40 E 16 26 29.81 1010 10 16 0.00 0.00

Powered by AerisWeather